User: anonymous   Login
Location: Oshawa
(43.9000°N, 78.8670°W)
Time: 22:19:56
(UTC-05:00)
Language:

Explorer 11/Cluster Stage 4 - Orbit

View from above orbital plane
View from above orbital plane
View from above satellite
View from above satellite

Ground track
Ground track

The orbit data is extracted from the following two-line orbital elements,

1   107U 61013A   18048.17452063 +.00000355 +00000-0 +24799-4 0  9996
2   107 028.7911 307.6614 0548543 234.5558 120.2605 14.08523040845635
Epoch (UTC): 17 February 2018 04:11:18
Eccentricity: 0.0548543
inclination: 28.7911°
perigee height: 467 km
apogee height: 1262 km
right ascension of ascending node: 307.6614°
argument of perigee: 234.5558°
revolutions per day: 14.08523040
mean anomaly at epoch: 120.2605°
orbit number at epoch: 84563

The dashed part of the orbit path shows where the satellite is in the earth's shadow,  

DLR